Orbital Elements at Epoch 2459000.5 (2020-May-31.0) TDB
Reference: JPL 15 (heliocentric ecliptic J2000)
Element | Value | Uncertainty (1-sigma) | Units |
e | .1994070107537071 | 8.0367e-08 | |
a | 3.133265105079801 | 6.705e-08 | au |
q | 2.508470076576938 | 2.4527e-07 | au |
i | 18.87726397854744 | 8.7879e-06 | deg |
node | 70.55255468922427 | 2.7645e-05 | deg |
peri | 350.2145566470362 | 3.7185e-05 | deg |
M | 133.1592824410472 | 2.622e-05 | deg |
tp | 2458251.187314011766 (2018-May-12.68731401) | 0.00013628 | TDB |
period | 2025.788679622769 5.55 | 6.5026e-05 1.78e-07 | d yr |
n | .1777085653707164 | 5.7042e-09 | deg/d |
Q | 3.758060133582664 | 8.042e-08 | au |
|
| | Orbit Determination Parameters
Additional Information
|